• Join FlightAware (Why Join?)
  • Login
  • US Flag 
11:45PM EDT


 

Airport Tracker/Info


-or-


 

Live Flight TrackerFlight Track Log ✈ SWA1802 ✈ 01-Aug-2013 ✈ KMDW - KLAX

Flight Track Log - Related Links

Times and Time Zones

All times are in EDT time to prevent confusion due to time zone crossing. See the SWA1802 flight status page for this flight to view local times or setup timezone preferences in your user account.

Time Position Orientation Groundspeed Altitude Reporting Facility
EDT Latitude Longitude Course Direction KTS MPH feet Rate Location/Type
07:15PM 41.8010 -87.7750 301° West 163 188 1,800  Level FlightAware
07:15PM 41.8030 -87.7810 294° West 170 196 1,900 960 Climbing FlightAware
07:15PM 41.8040 -87.7880 281° West 178 205 2,000 420 Climbing FlightAware
07:16PM 41.8030 -87.7970 262° West 197 227 2,000 720 Level FlightAware
07:16PM 41.8010 -87.8070 255° West 214 246 2,200 2,100 Climbing FlightAware
07:16PM 41.7920 -87.8310 243° Southwest 222 255 3,000 2,280 Climbing FlightAware
07:16PM 41.7840 -87.8500 241° Southwest 231 266 3,600 1,740 Climbing FlightAware
07:17PM 41.7770 -87.8750 249° West 237 273 4,000 840 Climbing FlightAware
07:17PM 41.7760 -87.8900 265° West 248 285 4,000  Level FlightAware
07:17PM 41.7740 -87.9190 265° West 258 297 4,000  Level FlightAware
07:17PM 41.7720 -87.9550 266° West 259 298 4,000  Level FlightAware
07:18PM 41.7710 -87.9860 268° West 257 296 4,000  Level FlightAware
07:18PM 41.7680 -88.0250 264° West 256 295 4,000  Level FlightAware
07:19PM 41.7670 -88.0570 268° West 260 299 4,000  Level FlightAware
07:19PM 41.7650 -88.0900 265° West 258 297 4,000 300 Level FlightAware
07:19PM 41.7690 -88.1210 280° West 260 299 4,200 1,140 Climbing FlightAware
07:19PM 41.7730 -88.1370 289° West 260 299 4,600 2,640 Climbing FlightAware
07:20PM 41.7800 -88.1720 285° West 260 299 5,700 1,860 Climbing FlightAware
07:20PM 41.7870 -88.2060 285° West 262 302 6,000 960 Climbing FlightAware
07:21PM 41.7940 -88.2420 285° West 262 302 6,400 2,460 Climbing FlightAware
07:21PM 41.7990 -88.2710 283° West 249 287 7,700 3,360 Climbing FlightAware
07:21PM 41.8050 -88.3080 282° West 253 291 8,900 2,820 Climbing FlightAware
07:21PM 41.8080 -88.3240 284° West 256 295 9,300 2,460 Climbing FlightAware
07:22PM 41.8110 -88.3450 281° West 264 304 9,900 2,340 Climbing FlightAware
07:22PM 41.8090 -88.3830 266° West 278 320 10,800 1,560 Climbing FlightAware
07:23PM 41.7980 -88.4480 257° West 325 374 11,500 1,200 Climbing FlightAware
07:23PM 41.7820 -88.5230 254° West 357 411 12,300 1,980 Climbing FlightAware
07:24PM 41.7660 -88.6000 254° West 362 417 13,900 2,460 Climbing FlightAware
07:24PM 41.7510 -88.6680 254° West 370 426 15,100 2,340 Climbing FlightAware
07:25PM 41.7340 -88.7530 255° West 376 433 16,600 2,280 Climbing FlightAware
07:26PM 41.7170 -88.8320 254° West 381 438 17,900 2,160 Climbing FlightAware
07:26PM 41.7000 -88.9130 254° West 387 445 19,200 1,980 Climbing FlightAware
07:27PM 41.6840 -88.9870 254° West 394 453 20,200 1,740 Climbing FlightAware
07:27PM 41.6660 -89.0730 254° West 402 463 21,200 1,740 Climbing FlightAware
07:28PM 41.6480 -89.1580 254° West 404 465 22,300 1,860 Climbing FlightAware
07:29PM 41.6290 -89.2480 254° West 405 466 23,500 1,680 Climbing FlightAware
07:29PM 41.6090 -89.3400 254° West 410 472 24,500 1,440 Climbing FlightAware
07:30PM 41.5960 -89.4340 260° West 413 475 25,300 1,260 Climbing FlightAware
07:30PM 41.5840 -89.5270 260° West 419 482 26,100 1,080 Climbing FlightAware
07:31PM 41.5730 -89.6110 260° West 424 488 26,600 960 Climbing FlightAware
07:32PM 41.5620 -89.7020 261° West 432 497 27,200 1,020 Climbing FlightAware
07:32PM 41.5500 -89.7870 259° West 434 499 27,800 1,260 Climbing FlightAware
07:33PM 41.5390 -89.8740 260° West 432 497 28,700 1,560 Climbing FlightAware
07:33PM 41.5250 -89.9760 260° West 425 489 29,700 2,100 Climbing FlightAware
07:34PM 41.5130 -90.0650 260° West 407 468 31,200 2,160 Climbing FlightAware
07:34PM 41.5030 -90.1420 260° West 394 453 32,200 1,560 Climbing FlightAware
07:35PM 41.4910 -90.2300 260° West 391 450 33,000 1,140 Climbing FlightAware
07:36PM 41.4800 -90.3150 260° West 391 450 33,600 840 Climbing FlightAware
07:36PM 41.4680 -90.3990 259° West 392 451 34,000 300 Climbing FlightAware
07:37PM 41.4560 -90.4860 260° West 391 450 34,000  Level FlightAware
07:37PM 41.4460 -90.5590 260° West 390 449 34,000  Level FlightAware
07:38PM 41.4340 -90.6450 259° West 388 447 34,000  Level FlightAware
07:39PM 41.4230 -90.7270 260° West 388 447 34,000  Level FlightAware
07:39PM 41.4110 -90.8120 259° West 389 448 34,000  Level FlightAware
07:40PM 41.4010 -90.8840 260° West 392 451 34,000  Level FlightAware
07:40PM 41.3870 -90.9830 259° West 401 461 34,000  Level FlightAware
07:41PM 41.3750 -91.0660 259° West 401 461 34,000  Level FlightAware
07:41PM 41.3630 -91.1500 259° West 399 459 34,000  Level FlightAware
07:42PM 41.3500 -91.2340 258° West 399 459 34,000  Level FlightAware
07:43PM 41.3390 -91.3140 260° West 398 458 34,000  Level FlightAware
07:43PM 41.3280 -91.3910 259° West 397 457 34,000  Level FlightAware
07:44PM 41.3150 -91.4790 259° West 395 455 34,000  Level FlightAware
07:44PM 41.3030 -91.5570 258° West 394 453 34,000  Level FlightAware
07:45PM 41.2890 -91.6510 259° West 394 453 34,000  Level FlightAware
07:46PM 41.2770 -91.7360 259° West 396 456 34,000  Level FlightAware
07:46PM 41.2650 -91.8120 258° West 399 459 34,000  Level FlightAware
07:47PM 41.2490 -91.9200 259° West 402 463 34,000  Level FlightAware
07:47PM 41.2380 -91.9950 259° West 403 464 34,000  Level FlightAware
07:48PM 41.2210 -92.1040 258° West 403 464 34,000  Level FlightAware
07:49PM 41.2080 -92.1880 258° West 403 464 34,000  Level FlightAware
07:49PM 41.1970 -92.2580 258° West 403 464 34,000  Level FlightAware
07:50PM 41.1810 -92.3610 258° West 402 463 34,000  Level FlightAware
07:50PM 41.1690 -92.4370 258° West 402 463 34,000  Level FlightAware
07:51PM 41.1560 -92.5240 259° West 401 461 34,000  Level FlightAware
07:52PM 41.1430 -92.6080 258° West 400 460 34,000  Level FlightAware
07:52PM 41.1290 -92.6940 258° West 399 459 34,000  Level FlightAware
07:53PM 41.1170 -92.7710 258° West 399 459 34,000  Level FlightAware
07:53PM 41.1010 -92.8690 258° West 402 463 34,000  Level FlightAware
07:54PM 41.0890 -92.9470 258° West 405 466 34,000  Level FlightAware
07:55PM 41.0740 -93.0360 257° West 405 466 34,000  Level FlightAware
07:55PM 41.0610 -93.1180 258° West 406 467 34,000  Level FlightAware
07:56PM 41.0460 -93.2070 257° West 408 470 34,000  Level FlightAware
07:56PM 41.0300 -93.3060 258° West 408 470 34,000  Level FlightAware
07:57PM 41.0180 -93.3770 257° West 409 471 34,000  Level FlightAware
07:57PM 41.1220 -92.7410 78° East 34,000  Level FlightAware
07:58PM 41.0020 -93.4780 258° West 407 468 34,000  Level FlightAware
07:58PM 40.9870 -93.5610 257° West 407 468 34,000  Level FlightAware
07:59PM 40.9690 -93.6700 258° West 408 470 34,000  Level FlightAware
08:00PM 40.9570 -93.7410 257° West 408 470 34,000  Level FlightAware
08:00PM 40.9400 -93.8360 257° West 408 470 34,000  Level FlightAware
08:01PM 40.9270 -93.9120 257° West 408 470 34,000  Level FlightAware
08:02PM 40.9030 -94.0660 258° West 417 480 34,000  Level FlightAware
08:02PM 40.8880 -94.1530 257° West 427 491 34,000  Level FlightAware
08:03PM 40.8680 -94.2330 252° West 437 503 34,000  Level FlightAware
08:03PM 40.8340 -94.3180 242° Southwest 441 507 34,000  Level FlightAware
08:04PM 40.7990 -94.4040 242° Southwest 442 509 34,000  Level FlightAware
08:04PM 40.7700 -94.4750 242° Southwest 441 507 34,000  Level FlightAware
08:05PM 40.7350 -94.5620 242° Southwest 443 510 34,000  Level FlightAware
08:06PM 40.7000 -94.6500 242° Southwest 441 507 34,000  Level FlightAware
08:06PM 40.6710 -94.7250 243° Southwest 442 509 34,000  Level FlightAware
08:07PM 40.6350 -94.8180 243° Southwest 440 506 34,000  Level FlightAware
08:07PM 40.6010 -94.9050 243° Southwest 437 503 34,000  Level FlightAware
08:08PM 40.5730 -94.9770 243° Southwest 436 502 34,000  Level FlightAware
08:09PM 40.5380 -95.0700 244° Southwest 437 503 34,000  Level FlightAware
08:09PM 40.5070 -95.1530 244° Southwest 432 497 34,000  Level FlightAware
08:10PM 40.4870 -95.2450 254° West 426 490 34,000  Level FlightAware
08:10PM 40.4730 -95.3270 257° West 425 489 34,000  Level FlightAware
08:11PM 40.4590 -95.4080 257° West 422 486 34,000  Level FlightAware
08:11PM 40.4430 -95.5010 257° West 422 486 34,000  Level FlightAware
08:12PM 40.4280 -95.5900 258° West 423 487 34,000  Level FlightAware
08:13PM 40.4140 -95.6660 256° West 422 486 34,000  Level FlightAware
08:13PM 40.3960 -95.7660 257° West 423 487 34,000  Level FlightAware
08:14PM 40.3810 -95.8530 257° West 423 487 34,000  Level FlightAware
08:14PM 40.3660 -95.9350 257° West 422 486 34,000  Level FlightAware
08:15PM 40.3500 -96.0240 257° West 418 481 34,000  Level FlightAware
08:16PM 40.3340 -96.1140 257° West 415 478 34,000  Level FlightAware
08:16PM 40.3200 -96.1880 256° West 413 475 34,000  Level FlightAware
08:17PM 40.3040 -96.2780 257° West 410 472 34,000  Level FlightAware
08:17PM 40.2880 -96.3670 257° West 407 468 34,000  Level FlightAware
08:18PM 40.2740 -96.4400 256° West 403 464 34,000  Level FlightAware
08:18PM 40.2580 -96.5300 257° West 401 461 34,000  Level FlightAware
08:19PM 40.2420 -96.6140 256° West 400 460 34,000  Level FlightAware
08:19PM 40.2320 -96.6690 257° West 399 459 34,000  Level FlightAware
08:20PM 40.2170 -96.7500 256° West 398 458 34,000  Level FlightAware
08:21PM 40.2010 -96.8460 258° West 396 456 34,000  Level FlightAware
08:21PM 40.1900 -96.9150 258° West 395 455 34,000  Level FlightAware
08:22PM 40.2100 -96.7990 77° East 397 457 34,000  Level FlightAware
08:22PM 40.1990 -96.8730 259° West 397 457 34,000  Level FlightAware
08:23PM 40.1680 -97.1480 262° West 385 443 34,000  Level FlightAware
08:24PM 40.1590 -97.2510 264° West 388 447 34,000  Level FlightAware
08:24PM 40.1530 -97.3260 264° West 388 447 34,000  Level FlightAware
08:25PM 40.1470 -97.3880 263° West 387 445 34,000  Level FlightAware
08:25PM 40.1420 -97.4530 264° West 388 447 34,000  Level FlightAware
08:26PM 40.1360 -97.5270 264° West 388 447 34,000  Level FlightAware
08:27PM 40.1270 -97.6640 265° West 34,000  Level FlightAware
08:27PM 40.1190 -97.7850 265° West 353 406 34,000 120 Level FlightAware
08:28PM 40.1120 -97.9330 267° West 395 455 34,300 240 Climbing FlightAware
08:29PM 40.1080 -98.0170 266° West 396 456 34,400 660 Climbing FlightAware
08:30PM 40.1040 -98.1180 267° West 399 459 35,200 780 Climbing FlightAware
08:30PM 40.0950 -98.2000 262° West 402 463 35,400 120 Climbing FlightAware
08:31PM 40.0860 -98.2730 261° West 402 463 35,400  Level FlightAware
08:32PM 40.0770 -98.3470 261° West 402 463 35,400  Level FlightAware
08:32PM 40.0690 -98.4180 262° West 402 463 35,400  Level FlightAware
08:33PM 40.0600 -98.4920 261° West 402 463 35,400  Level FlightAware
08:33PM 40.0510 -98.5650 261° West 402 463 35,400  Level FlightAware
08:34PM 40.0420 -98.6390 261° West 402 463 35,400  Level FlightAware
08:35PM 40.0330 -98.7120 261° West 402 463 35,400  Level FlightAware
08:35PM 40.0240 -98.7880 261° West 402 463 35,400  Level FlightAware
08:36PM 40.0150 -98.8610 261° West 402 463 35,400  Level FlightAware
08:36PM 40.0060 -98.9340 261° West 402 463 35,400  Level FlightAware
08:37PM 39.9970 -99.0080 261° West 402 463 35,400  Level FlightAware
08:38PM 39.9880 -99.0810 261° West 402 463 35,400  Level FlightAware
08:38PM 39.9790 -99.1560 261° West 402 463 35,400  Level FlightAware
08:39PM 39.9700 -99.2300 261° West 402 463 35,400  Level FlightAware
08:39PM 39.9610 -99.3050 261° West 402 463 35,400 480 Level FlightAware
08:40PM 39.8911 -99.5511 261° West 391 450 36,000 360 Climbing Minneapolis Center
08:41PM 39.8772 -99.6906 263° West 389 448 36,000  Level Minneapolis Center
08:42PM 39.8653 -99.8297 264° West 388 447 36,000  Level Minneapolis Center
08:43PM 39.8547 -99.9700 264° West 388 447 36,000  Level Minneapolis Center
08:44PM 39.8300 -100.1094 257° West 393 452 36,000  Level Minneapolis Center
08:45PM 39.7886 -100.2714 252° West 394 453 36,000  Level Minneapolis Center
08:47PM 39.7422 -100.4603 252° West 394 453 36,000  Level Denver Center
08:48PM 39.7053 -100.6103 252° West 391 450 36,000  Level Denver Center
08:49PM 39.6672 -100.7631 252° West 396 456 36,000  Level Denver Center
08:50PM 39.6289 -100.9189 252° West 403 464 36,000  Level Denver Center
08:51PM 39.5967 -101.0508 252° West 401 461 36,000  Level Denver Center
08:52PM 39.5581 -101.2019 252° West 397 457 36,000  Level Denver Center
08:53PM 39.5253 -101.3342 252° West 401 461 36,000  Level Denver Center
08:59PM 39.3270 -102.1070 252° West 409 471 36,000  Level FlightAware
08:59PM 39.3090 -102.1740 251° West 409 471 36,000  Level FlightAware
09:00PM 39.2900 -102.2440 251° West 409 471 36,000  Level FlightAware
09:00PM 39.2650 -102.3420 252° West 408 470 36,000  Level FlightAware
09:01PM 39.2420 -102.4300 251° West 408 470 36,000  Level FlightAware
09:02PM 39.2120 -102.5420 251° West 409 471 36,000  Level FlightAware
09:02PM 39.1890 -102.6290 251° West 408 470 36,000  Level FlightAware
09:03PM 39.1690 -102.7070 252° West 410 472 36,000  Level FlightAware
09:04PM 39.1460 -102.7910 251° West 411 473 36,000  Level FlightAware
09:04PM 39.1230 -102.8780 251° West 414 476 36,000  Level FlightAware
09:05PM 39.1010 -102.9580 251° West 416 479 36,000  Level FlightAware
09:05PM 39.0800 -103.0380 251° West 416 479 36,000  Level FlightAware
09:06PM 39.0570 -103.1200 250° West 418 481 36,000  Level FlightAware
09:06PM 39.0350 -103.2020 251° West 418 481 36,000  Level FlightAware
09:07PM 39.0130 -103.2850 251° West 418 481 36,000  Level FlightAware
09:08PM 38.9900 -103.3680 250° West 420 483 36,000  Level FlightAware
09:08PM 38.9660 -103.4530 250° West 419 482 36,000  Level FlightAware
09:09PM 38.9460 -103.5280 251° West 419 482 36,000  Level FlightAware
09:09PM 38.9230 -103.6120 251° West 416 479 36,000  Level FlightAware
09:10PM 38.8990 -103.6960 250° West 414 476 36,000  Level FlightAware
09:10PM 38.8780 -103.7710 250° West 413 475 36,000  Level FlightAware
09:11PM 38.8560 -103.8510 251° West 412 474 36,000  Level FlightAware
09:12PM 38.8320 -103.9370 250° West 410 472 36,000  Level FlightAware
09:12PM 38.8110 -104.0120 250° West 408 470 36,000  Level FlightAware
09:13PM 38.7880 -104.0940 250° West 410 472 36,000  Level FlightAware
09:13PM 38.7650 -104.1760 250° West 411 473 36,000  Level FlightAware
09:14PM 38.7420 -104.2560 250° West 410 472 36,000  Level FlightAware
09:15PM 38.7190 -104.3360 250° West 408 470 36,000  Level FlightAware
09:15PM 38.6960 -104.4170 250° West 406 467 36,000  Level FlightAware
09:16PM 38.6750 -104.4910 250° West 405 466 36,000  Level FlightAware
09:16PM 38.6520 -104.5710 250° West 407 468 36,000  Level FlightAware
09:17PM 38.6300 -104.6470 250° West 409 471 36,000  Level FlightAware
09:18PM 38.6050 -104.7340 250° West 408 470 36,000  Level FlightAware
09:18PM 38.5850 -104.8020 249° West 408 470 36,000  Level FlightAware
09:19PM 38.5580 -104.8970 250° West 413 475 36,000  Level FlightAware
09:19PM 38.5320 -104.9870 250° West 416 479 36,000  Level FlightAware
09:20PM 38.5100 -105.0620 249° West 417 480 36,000  Level FlightAware
09:21PM 38.4840 -105.1490 249° West 416 479 36,000  Level FlightAware
09:21PM 38.4640 -105.2330 253° West 412 474 36,000  Level FlightAware
09:22PM 38.4480 -105.3130 256° West 412 474 36,000  Level FlightAware
09:22PM 38.4290 -105.4090 256° West 411 473 36,000  Level FlightAware
09:23PM 38.4070 -105.5270 257° West 410 472 36,000  Level FlightAware
09:24PM 38.3910 -105.6120 257° West 408 470 36,000  Level FlightAware
09:25PM 38.3750 -105.6950 256° West 408 470 36,000  Level FlightAware
09:25PM 38.3630 -105.7620 257° West 409 471 36,000  Level FlightAware
09:26PM 38.3440 -105.8690 257° West 410 472 36,000  Level FlightAware
09:26PM 38.3290 -105.9500 257° West 412 474 36,000  Level FlightAware
09:27PM 38.3130 -106.0430 258° West 411 473 36,000  Level FlightAware
09:28PM 38.2980 -106.1340 258° West 411 473 36,000  Level FlightAware
09:28PM 38.2860 -106.2030 258° West 412 474 36,000  Level FlightAware
09:29PM 38.2680 -106.3100 258° West 412 474 36,000  Level FlightAware
09:29PM 38.2530 -106.3980 258° West 413 475 36,000  Level FlightAware
09:30PM 38.2400 -106.4790 258° West 410 472 36,000  Level FlightAware
09:31PM 38.2160 -106.5600 249° West 409 471 36,000  Level FlightAware
09:31PM 38.1860 -106.6510 247° West 405 466 36,000  Level FlightAware
09:32PM 38.1610 -106.7270 247° West 404 465 36,000  Level FlightAware
09:33PM 38.1340 -106.8100 248° West 405 466 36,000  Level FlightAware
09:33PM 38.1100 -106.8830 247° West 405 466 36,000  Level FlightAware
09:34PM 38.0820 -106.9670 247° West 407 468 36,000  Level FlightAware
09:34PM 38.0590 -107.0360 247° West 408 470 36,000  Level FlightAware
09:35PM 38.0330 -107.1130 247° West 409 471 36,000  Level FlightAware
09:35PM 38.0060 -107.1930 247° West 410 472 36,000  Level FlightAware
09:36PM 37.9800 -107.2700 247° West 412 474 36,000  Level FlightAware
09:37PM 37.9520 -107.3510 246° West 414 476 36,000  Level FlightAware
09:37PM 37.9290 -107.4200 247° West 416 479 36,000  Level FlightAware
09:38PM 37.9010 -107.5020 247° West 417 480 36,000 480 Level FlightAware
09:38PM 37.8740 -107.5800 246° West 410 472 36,600 1,440 Climbing FlightAware
09:39PM 37.8490 -107.6540 247° West 392 451 37,700 1,140 Climbing FlightAware
09:40PM 37.8270 -107.7180 246° West 393 452 38,000 240 Climbing FlightAware
09:40PM 37.7980 -107.8030 247° West 399 459 38,000  Level FlightAware
09:41PM 37.7720 -107.8790 247° West 402 463 38,000  Level FlightAware
09:41PM 37.7420 -107.9660 246° West 403 464 38,000  Level FlightAware
09:42PM 37.7160 -108.0410 246° West 402 463 38,000  Level FlightAware
09:43PM 37.6930 -108.1080 247° West 401 461 38,000  Level FlightAware
09:43PM 37.6640 -108.1890 246° West 400 460 38,000  Level FlightAware
09:44PM 37.6370 -108.2660 246° West 400 460 38,000  Level FlightAware
09:44PM 37.6080 -108.3490 246° West 400 460 38,000  Level FlightAware
09:45PM 37.5800 -108.4310 247° West 403 464 38,000  Level FlightAware
09:46PM 37.5500 -108.5150 246° West 407 468 38,000  Level FlightAware
09:46PM 37.5250 -108.5850 246° West 407 468 38,000  Level FlightAware
09:47PM 37.5020 -108.6500 246° West 407 468 38,000  Level FlightAware
09:47PM 37.4870 -108.6940 247° West 407 468 38,000  Level FlightAware
09:48PM 37.4410 -108.8240 246° West 410 472 38,000  Level FlightAware
09:49PM 37.4100 -108.9080 245° Southwest 411 473 38,000  Level FlightAware
09:50PM 37.3700 -109.0200 246° West 410 472 38,000  Level FlightAware
09:50PM 37.3450 -109.0860 245° Southwest 410 472 38,000  Level FlightAware
09:51PM 37.3210 -109.1520 245° Southwest 410 472 38,000  Level FlightAware
09:51PM 37.2960 -109.2180 245° Southwest 410 472 38,000  Level FlightAware
09:52PM 37.3080 -109.3520 276° West 989 1138 38,000  Level FlightAware
09:52PM 37.2980 -109.4100 258° West 417 480 38,000  Level FlightAware
09:53PM 37.2840 -109.4900 258° West 414 476 38,000  Level FlightAware
09:53PM 37.2690 -109.5810 258° West 414 476 38,000  Level FlightAware
09:54PM 37.2560 -109.6610 258° West 413 475 38,000  Level FlightAware
09:55PM 37.2400 -109.7640 259° West 414 476 38,000  Level FlightAware
09:55PM 37.2230 -109.8580 257° West 412 474 38,000  Level FlightAware
09:56PM 37.2060 -109.9400 255° West 410 472 38,000  Level FlightAware
09:57PM 37.1900 -110.0180 256° West 410 472 38,000  Level FlightAware
09:57PM 37.1740 -110.0960 256° West 410 472 38,000  Level FlightAware
09:58PM 37.1590 -110.1680 255° West 410 472 38,000  Level FlightAware
09:58PM 37.1440 -110.2390 255° West 410 472 38,000  Level FlightAware
09:59PM 37.1290 -110.3090 255° West 410 472 38,000  Level FlightAware
10:00PM 37.1140 -110.3790 255° West 410 472 38,000  Level FlightAware
10:00PM 37.0990 -110.4490 255° West 410 472 38,000  Level FlightAware
10:01PM 37.0840 -110.5200 255° West 410 472 38,000  Level FlightAware
10:01PM 37.0680 -110.5900 254° West 410 472 38,000  Level FlightAware
10:02PM 37.0540 -110.6560 255° West 410 472 38,000  Level FlightAware
10:03PM 36.9850 -110.8360 244° Southwest 421 484 38,000  Level FlightAware
10:03PM 36.9630 -110.9090 249° West 420 483 38,000  Level FlightAware
10:04PM 36.9350 -111.0040 250° West 420 483 38,000  Level FlightAware
10:04PM 36.9120 -111.0830 250° West 418 481 38,000  Level FlightAware
10:05PM 36.8910 -111.1580 251° West 418 481 38,000  Level FlightAware
10:06PM 36.8670 -111.2390 250° West 419 482 38,000  Level FlightAware
10:06PM 36.8450 -111.3170 251° West 420 483 38,000  Level FlightAware
10:07PM 36.8190 -111.4030 249° West 420 483 38,000  Level FlightAware
10:07PM 36.7870 -111.4690 239° Southwest 417 480 38,000  Level FlightAware
10:08PM 36.7480 -111.5400 236° Southwest 416 479 38,000  Level FlightAware
10:08PM 36.7110 -111.6080 236° Southwest 416 479 38,000  Level FlightAware
10:09PM 36.6700 -111.6840 236° Southwest 416 479 38,000  Level FlightAware
10:10PM 36.6400 -111.7400 236° Southwest 416 479 38,000  Level FlightAware
10:10PM 36.5940 -111.8220 235° Southwest 415 478 38,000  Level FlightAware
10:11PM 36.5600 -111.8910 238° Southwest 418 481 38,000  Level FlightAware
10:11PM 36.5270 -111.9670 242° Southwest 415 478 38,000  Level FlightAware
10:12PM 36.4980 -112.0350 242° Southwest 417 480 38,000  Level FlightAware
10:13PM 36.4700 -112.0970 241° Southwest 416 479 38,000  Level FlightAware
10:13PM 36.4340 -112.1810 242° Southwest 417 480 38,000  Level FlightAware
10:14PM 36.4010 -112.2560 241° Southwest 417 480 38,000  Level FlightAware
10:14PM 36.3730 -112.3200 241° Southwest 417 480 38,000  Level FlightAware
10:15PM 36.3340 -112.4070 241° Southwest 417 480 38,000  Level FlightAware
10:15PM 36.3050 -112.4750 242° Southwest 417 480 38,000  Level FlightAware
10:16PM 36.2710 -112.5510 241° Southwest 416 479 38,000  Level FlightAware
10:17PM 36.2380 -112.6240 241° Southwest 416 479 38,000  Level FlightAware
10:17PM 36.2050 -112.6980 241° Southwest 416 479 38,000  Level FlightAware
10:18PM 36.1770 -112.7610 241° Southwest 417 480 38,000  Level FlightAware
10:18PM 36.1410 -112.8420 241° Southwest 417 480 38,000  Level FlightAware
10:19PM 36.1080 -112.9160 241° Southwest 418 481 38,000  Level FlightAware
10:20PM 36.0760 -112.9880 241° Southwest 418 481 38,000  Level FlightAware
10:20PM 36.0410 -113.0640 240° Southwest 418 481 38,000  Level FlightAware
10:21PM 36.0120 -113.1290 241° Southwest 419 482 38,000  Level FlightAware
10:21PM 35.9770 -113.2050 240° Southwest 419 482 38,000  Level FlightAware
10:22PM 35.9420 -113.2840 241° Southwest 419 482 38,000 -180 Level FlightAware
10:22PM 35.9110 -113.3520 241° Southwest 418 481 37,800 -720 Descending FlightAware
10:23PM 35.8780 -113.4250 241° Southwest 416 479 37,200 -1,020 Descending FlightAware
10:24PM 35.8440 -113.4990 240° Southwest 410 472 36,600 -1,020 Descending FlightAware
10:24PM 35.8140 -113.5650 241° Southwest 414 476 36,100 -540 Descending FlightAware
10:25PM 35.7810 -113.6380 241° Southwest 412 474 36,000 -120 Descending FlightAware
10:25PM 35.7480 -113.7090 240° Southwest 416 479 36,000  Level FlightAware
10:26PM 35.7130 -113.7870 241° Southwest 418 481 36,000  Level FlightAware
10:27PM 35.6820 -113.8530 240° Southwest 417 480 36,000  Level FlightAware
10:27PM 35.6480 -113.9260 240° Southwest 417 480 36,000  Level FlightAware
10:28PM 35.6150 -113.9980 241° Southwest 418 481 36,000  Level FlightAware
10:28PM 35.5840 -114.0640 240° Southwest 417 480 36,000  Level FlightAware
10:29PM 35.5510 -114.1350 240° Southwest 418 481 36,000  Level FlightAware
10:29PM 35.5130 -114.2180 241° Southwest 417 480 36,000  Level FlightAware
10:30PM 35.4780 -114.2930 240° Southwest 417 480 36,000  Level FlightAware
10:31PM 35.4470 -114.3600 240° Southwest 417 480 36,000  Level FlightAware
10:31PM 35.4140 -114.4290 240° Southwest 417 480 36,000  Level FlightAware
10:32PM 35.3810 -114.5000 240° Southwest 417 480 36,000  Level FlightAware
10:32PM 35.3470 -114.5730 240° Southwest 418 481 36,000  Level FlightAware
10:33PM 35.3010 -114.6700 240° Southwest 418 481 36,000  Level FlightAware
10:34PM 35.2640 -114.7470 240° Southwest 418 481 36,000  Level FlightAware
10:34PM 35.2310 -114.8180 240° Southwest 417 480 36,000  Level FlightAware
10:35PM 35.1970 -114.8900 240° Southwest 416 479 36,000  Level FlightAware
10:36PM 35.1620 -114.9620 239° Southwest 415 478 36,000  Level FlightAware
10:36PM 35.1270 -115.0370 240° Southwest 416 479 36,000  Level FlightAware
10:37PM 35.0950 -115.1030 239° Southwest 417 480 36,000  Level FlightAware
10:37PM 35.0610 -115.1750 240° Southwest 418 481 36,000  Level FlightAware
10:38PM 35.0280 -115.2430 239° Southwest 417 480 36,000  Level FlightAware
10:38PM 34.9980 -115.3060 240° Southwest 416 479 36,000  Level FlightAware
10:39PM 34.9600 -115.3840 239° Southwest 415 478 36,000  Level FlightAware
10:40PM 34.9240 -115.4580 239° Southwest 415 478 36,000  Level FlightAware
10:40PM 34.8930 -115.5240 240° Southwest 415 478 36,000  Level FlightAware
10:41PM 34.8570 -115.5970 239° Southwest 416 479 36,000  Level FlightAware
10:41PM 34.8220 -115.6690 239° Southwest 415 478 36,000  Level FlightAware
10:42PM 34.7750 -115.7660 239° Southwest 416 479 36,000  Level FlightAware
10:43PM 34.7400 -115.8380 239° Southwest 416 479 36,000  Level FlightAware
10:43PM 34.7080 -115.9030 239° Southwest 418 481 36,000  Level FlightAware
10:44PM 34.6740 -115.9720 239° Southwest 419 482 36,000  Level FlightAware
10:44PM 34.6370 -116.0480 239° Southwest 421 484 36,000  Level FlightAware
10:45PM 34.6010 -116.1220 239° Southwest 421 484 36,000 -360 Level FlightAware
10:46PM 34.5660 -116.1930 239° Southwest 412 474 35,600 -1,800 Descending FlightAware
10:46PM 34.5310 -116.2620 238° Southwest 414 476 33,900 -2,880 Descending FlightAware
10:47PM 34.4960 -116.3330 239° Southwest 413 475 32,300 -2,400 Descending FlightAware
10:47PM 34.4630 -116.4010 240° Southwest 405 466 31,100 -2,040 Descending FlightAware
10:48PM 34.4310 -116.4650 239° Southwest 397 457 30,000 -2,040 Descending FlightAware
10:49PM 34.3970 -116.5340 239° Southwest 392 451 28,800 -1,980 Descending FlightAware
10:49PM 34.3690 -116.5910 239° Southwest 388 447 27,800 -1,740 Descending FlightAware
10:50PM 34.3320 -116.6640 238° Southwest 395 455 26,800 -1,380 Descending FlightAware
10:50PM 34.2970 -116.7330 238° Southwest 404 465 26,100 -1,680 Descending FlightAware
10:51PM 34.2590 -116.8100 239° Southwest 397 457 24,700 -2,160 Descending FlightAware
10:52PM 34.2250 -116.8770 238° Southwest 390 449 23,400 -2,160 Descending FlightAware
10:52PM 34.1940 -116.9390 239° Southwest 392 451 22,200 -2,280 Descending FlightAware
10:53PM 34.1590 -117.0080 239° Southwest 393 452 20,800 -2,460 Descending FlightAware
10:53PM 34.1260 -117.0740 239° Southwest 394 453 19,300 -1,800 Descending FlightAware
10:54PM 34.0970 -117.1340 240° Southwest 379 436 18,800 -1,920 Descending FlightAware
10:55PM 34.0640 -117.2070 241° Southwest 389 448 17,100 -2,400 Descending FlightAware
10:55PM 34.0450 -117.2800 253° West 375 432 15,900 -2,040 Descending FlightAware
10:56PM 34.0400 -117.3450 265° West 364 419 14,800 -2,400 Descending FlightAware
10:56PM 34.0330 -117.4150 263° West 361 415 13,200 -2,520 Descending FlightAware
10:57PM 34.0320 -117.5100 269° West 343 395 11,300 -1,860 Descending FlightAware
10:58PM 34.0320 -117.5940 270° West 307 353 10,300 -960 Descending FlightAware
10:59PM 34.0260 -117.6570 263° West 280 322 10,000 -360 Descending FlightAware
10:59PM 34.0210 -117.7010 262° West 277 319 9,900 -660 Descending FlightAware
10:59PM 34.0190 -117.7320 266° West 274 315 9,500 -1,200 Descending FlightAware
11:00PM 34.0160 -117.7650 264° West 272 313 9,100 -1,200 Descending FlightAware
11:00PM 34.0130 -117.7950 263° West 269 310 8,700 -1,380 Descending FlightAware
11:00PM 34.0100 -117.8260 263° West 267 307 8,200 -1,380 Descending FlightAware
11:01PM 34.0070 -117.8540 263° West 264 304 7,800 -1,260 Descending FlightAware
11:01PM 34.0030 -117.8890 262° West 263 303 7,300 -1,260 Descending FlightAware
11:01PM 34.0010 -117.9190 265° West 260 299 6,900 -1,140 Descending FlightAware
11:02PM 33.9990 -117.9360 262° West 254 292 6,700 -840 Descending FlightAware
11:02PM 33.9960 -117.9690 264° West 247 284 6,400 -840 Descending FlightAware
11:02PM 33.9930 -117.9970 263° West 242 278 6,100 -900 Descending FlightAware
11:03PM 33.9910 -118.0150 262° West 239 275 5,900 -900 Descending FlightAware
11:03PM 33.9880 -118.0420 262° West 234 269 5,600 -840 Descending FlightAware
11:03PM 33.9860 -118.0640 264° West 229 264 5,400 -780 Descending FlightAware
11:04PM 33.9830 -118.0930 263° West 214 246 5,100 -1,140 Descending FlightAware
11:04PM 33.9810 -118.1160 264° West 211 243 4,600 -1,320 Descending FlightAware
11:04PM 33.9780 -118.1420 262° West 195 224 4,200 -900 Descending FlightAware
11:05PM 33.9760 -118.1630 263° West 185 213 4,000 -840 Descending FlightAware
11:05PM 33.9750 -118.1780 265° West 183 211 3,700 -1,200 Descending FlightAware
11:05PM 33.9730 -118.1980 263° West 185 213 3,300 -1,080 Descending FlightAware
11:06PM 33.9710 -118.2120 260° West 185 213 3,100 -900 Descending FlightAware
11:06PM 33.9680 -118.2460 264° West 186 214 2,600 -1,020 Descending FlightAware
11:06PM 33.9660 -118.2630 262° West 181 208 2,300 -960 Descending FlightAware
11:07PM 33.9630 -118.2920 263° West 176 203 1,900 -840 Descending FlightAware
11:07PM 33.9620 -118.3000 261° West 171 197 1,800 -900 Descending FlightAware
11:07PM 33.9600 -118.3230 264° West 155 178 1,400 -960 Descending FlightAware
11:08PM 33.9580 -118.3400 262° West 147 169 1,100 -720 Descending FlightAware
11:08PM 33.9570 -118.3560 266° West 156 180 900 -780 Descending FlightAware
11:09PM 33.9540 -118.3850 263° West 147 169 400 -840 Descending FlightAware
11:09PM 33.9520 -118.3970 259° West 149 171 200 -360 Descending FlightAware
11:09PM 33.9500 -118.4220 264° West 143 165 100 -240 Descending FlightAware
11:17PM 33.9425 -118.4081 259° West  Level Estimated
11:18PM 33.9425 -118.4081 259° West  Level Estimated